Regional Weather Roundup
Issued by NWS

Home | Current Version | Previous Version | Text Only | Print | Product List | Glossary On
Versions: 1 2 3 4 5 6 7 8 9 10 11 12 13 14 15 16 17 18 19 20 21 22 23 24 25 26 27 28 29 30 31 32 33 34 35 36 37 38 39 40 41 42 43 44 45 46 47 48 49 50
000
ASUS45 KCYS 252210
RWRWY

WYOMING REGIONAL WEATHER ROUNDUP
NATIONAL WEATHER SERVICE CHEYENNE WY
300 PM MST SUN JAN 25 2015

NOTE:  "FAIR" INDICATES FEW OR NO CLOUDS BELOW 12,000 FEET
WITH NO SIGNIFICANT WEATHER AND/OR OBSTRUCTIONS TO VISIBILITY.

WYZ001-252300-
YELLOWSTONE NATIONAL PARK

CITY           SKY/WX    TMP DP  RH WIND       PRES   REMARKS
LK YELLOWSTONE   N/A     32  26  78 CALM      30.39R
W YELLOWSTONE  NOT AVBL

$$
WYZ002>013-054>058-071-098>099-252300-
NORTHERN WYOMING

CITY           SKY/WX    TMP DP  RH WIND       PRES   REMARKS
JACKSON        SUNNY     32  28  86 N7        30.37S WCI  26
CODY           FAIR      57  25  28 W16G23    30.10R
GREYBULL       FAIR      36  27  69 NW3       30.13R
WORLAND        FAIR      33  25  72 CALM      30.11S
SHERIDAN       FAIR      52  36  54 CALM      30.01R
BUFFALO        FAIR      56  32  40 NE5       30.04R
GILLETTE       FAIR      53  33  46 W13       30.00S
HULETT           N/A    N/A N/A N/A MISG        N/A
NEWCASTLE      FAIR      46  32  57 NW5       30.02S

$$
WYZ014>020-022>026-101>103-252300-
CENTRAL WYOMING

CITY           SKY/WX    TMP DP  RH WIND       PRES   REMARKS
BIG PINEY      FAIR      46  28  49 N10       30.33R
PINEDALE       FAIR      37  30  75 W18G25    30.31S WCI  27
DUBOIS         FAIR      45  25  45 NW18G26   30.27S
LANDER         FAIR      47  29  49 CALM      30.15R
RIVERTON       FAIR      42  27  55 CALM      30.16R
CASPER         FAIR      47  28  47 SW24G31   30.11S
DOUGLAS        FAIR      54  27  35 NW21G32   30.08S

$$
WYZ021-027>030-104>119-252300-
SOUTHERN WYOMING

CITY           SKY/WX    TMP DP  RH WIND       PRES   REMARKS
EVANSTON       FAIR      44  32  62 SW9       30.40F
KEMMERER       FAIR      41  32  70 W15       30.41R
FORT BRIDGER   FAIR      49  32  51 W18G24    30.40R
ROCK SPRINGS   FAIR      47  29  49 W20       30.31R
DIXON          FAIR      42  30  63 SW7       30.35R
RAWLINS        FAIR      42  29  59 W28G33    30.24R
SARATOGA       FAIR      45  28  53 W22G30    30.26R
LARAMIE        FAIR      44  26  49 W22G30    30.17R
CHEYENNE       FAIR      51  27  39 NW15G26   30.11R
TORRINGTON     FAIR      56  30  37 W15G22    30.04F
PINE BLUFFS    FAIR      52  30  43 NW20G28   30.10R

$$



USA.gov is the U.S. government's official web portal to all federal, state and local government web resources and services.